timestamp,wind_dir_avg,wind_spd_max_dir,wind_spd_avg,wind_spd_gust,battery_voltage,lat,long
2018-06-10 00:00:00+00:00,217.0,216.0,6.51,7.3,,47.59359,-54.27349
2018-06-10 00:20:00+00:00,217.0,219.0,6.49,7.44,,47.59359,-54.27349
2018-06-10 00:30:00+00:00,227.0,225.0,6.65,7.44,,47.59359,-54.27349
2018-06-10 00:40:00+00:00,228.0,230.0,6.87,7.59,,47.59359,-54.27349
2018-06-10 00:50:00+00:00,234.0,235.0,8.12,8.66,,47.59359,-54.27349
2018-06-10 01:00:00+00:00,225.0,227.0,7.89,8.7,,47.59359,-54.27349
2018-06-10 01:10:00+00:00,223.0,223.0,8.02,8.89,,47.59359,-54.27349
2018-06-10 01:20:00+00:00,225.0,233.0,6.86,8.02,,47.59359,-54.27349
2018-06-10 01:30:00+00:00,241.0,241.0,5.86,7.27,,47.59359,-54.27349
2018-06-10 01:40:00+00:00,245.0,247.0,7.51,8.92,,47.59359,-54.27349
2018-06-10 01:50:00+00:00,237.0,236.0,7.22,8.45,,47.59359,-54.27349
2018-06-10 02:00:00+00:00,237.0,237.0,7.28,8.39,,47.59359,-54.27349
2018-06-10 02:10:00+00:00,226.0,224.0,8.8,9.53,,47.59359,-54.27349
2018-06-10 02:20:00+00:00,226.0,223.0,7.36,8.19,,47.59359,-54.27349
2018-06-10 02:30:00+00:00,231.0,235.0,6.71,7.88,,47.59359,-54.27349
2018-06-10 02:40:00+00:00,230.0,229.0,5.96,6.6,,47.59359,-54.27349
2018-06-10 02:50:00+00:00,227.0,231.0,5.8,6.3,,47.59359,-54.27349
2018-06-10 03:00:00+00:00,214.0,215.0,5.23,5.67,,47.59359,-54.27349
2018-06-10 03:10:00+00:00,217.0,217.0,4.4,5.08,,47.59359,-54.27349
2018-06-10 03:20:00+00:00,247.0,248.0,3.26,4.35,,47.59359,-54.27349
2018-06-10 03:30:00+00:00,265.0,265.0,4.62,4.99,,47.59359,-54.27349
2018-06-10 03:40:00+00:00,277.0,277.0,5.85,6.49,,47.59359,-54.27349
2018-06-10 03:50:00+00:00,276.0,278.0,4.53,5.07,,47.59359,-54.27349
2018-06-10 04:00:00+00:00,265.0,267.0,4.74,5.16,,47.59359,-54.27349
2018-06-10 04:10:00+00:00,224.0,222.0,3.97,4.82,,47.59359,-54.27349
2018-06-10 04:20:00+00:00,234.0,241.0,6.68,8.8,,47.59359,-54.27349
2018-06-10 04:30:00+00:00,222.0,222.0,5.69,6.18,,47.59359,-54.27349
2018-06-10 04:40:00+00:00,219.0,222.0,4.48,5.14,,47.59359,-54.27349
2018-06-10 04:50:00+00:00,219.0,217.0,4.34,4.96,,47.59359,-54.27349
2018-06-10 05:00:00+00:00,222.0,224.0,4.67,5.16,,47.59359,-54.27349
2018-06-10 05:10:00+00:00,223.0,222.0,4.97,5.39,,47.59359,-54.27349
2018-06-10 05:20:00+00:00,234.0,233.0,3.67,3.98,,47.59359,-54.27349
2018-06-10 05:30:00+00:00,251.0,254.0,3.89,4.81,,47.59359,-54.27349
2018-06-10 05:40:00+00:00,252.0,254.0,4.76,5.3,,47.59359,-54.27349
2018-06-10 05:50:00+00:00,257.0,260.0,5.33,5.73,,47.59359,-54.27349
2018-06-10 06:00:00+00:00,256.0,254.0,5.17,5.67,,47.59359,-54.27349
2018-06-10 06:10:00+00:00,252.0,252.0,6.62,7.21,,47.59359,-54.27349
2018-06-10 06:20:00+00:00,253.0,254.0,6.7,7.36,,47.59359,-54.27349
2018-06-10 06:30:00+00:00,255.0,255.0,5.79,6.18,,47.59359,-54.27349
2018-06-10 06:40:00+00:00,257.0,254.0,5.04,5.39,,47.59359,-54.27349
2018-06-10 06:50:00+00:00,251.0,251.0,6.3,6.67,,47.59359,-54.27349
2018-06-10 07:00:00+00:00,255.0,256.0,5.92,6.23,,47.59359,-54.27349
2018-06-10 07:10:00+00:00,247.0,249.0,5.74,5.96,,47.59359,-54.27349
2018-06-10 07:20:00+00:00,247.0,246.0,5.65,6.32,,47.59359,-54.27349
2018-06-10 07:30:00+00:00,248.0,251.0,5.72,6.23,,47.59359,-54.27349
2018-06-10 07:40:00+00:00,246.0,247.0,6.62,7.7,,47.59359,-54.27349
2018-06-10 07:50:00+00:00,249.0,248.0,6.12,6.96,,47.59359,-54.27349
2018-06-10 08:00:00+00:00,255.0,254.0,6.05,6.79,,47.59359,-54.27349
2018-06-10 08:10:00+00:00,256.0,255.0,6.16,6.99,,47.59359,-54.27349
2018-06-10 08:20:00+00:00,252.0,255.0,6.33,6.94,,47.59359,-54.27349
2018-06-10 08:30:00+00:00,255.0,257.0,5.93,6.63,,47.59359,-54.27349
2018-06-10 08:40:00+00:00,251.0,251.0,6.78,7.4,,47.59359,-54.27349
2018-06-10 08:50:00+00:00,257.0,256.0,6.09,6.99,,47.59359,-54.27349
2018-06-10 09:00:00+00:00,256.0,255.0,6.4,7.34,,47.59359,-54.27349
2018-06-10 09:10:00+00:00,256.0,255.0,6.62,7.04,,47.59359,-54.27349
2018-06-10 09:20:00+00:00,258.0,264.0,6.83,7.96,,47.59359,-54.27349
2018-06-10 09:30:00+00:00,259.0,260.0,6.31,6.73,,47.59359,-54.27349
2018-06-10 09:40:00+00:00,254.0,257.0,6.05,6.81,,47.59359,-54.27349
2018-06-10 09:50:00+00:00,253.0,262.0,4.73,5.34,,47.59359,-54.27349
2018-06-10 10:00:00+00:00,249.0,248.0,4.85,5.43,,47.59359,-54.27349
2018-06-10 10:10:00+00:00,251.0,247.0,4.73,5.06,,47.59359,-54.27349
2018-06-10 10:20:00+00:00,235.0,250.0,5.04,5.95,,47.59359,-54.27349
2018-06-10 10:30:00+00:00,267.0,272.0,4.58,5.31,,47.59359,-54.27349
2018-06-10 10:40:00+00:00,278.0,284.0,6.75,7.96,,47.59359,-54.27349
2018-06-10 10:50:00+00:00,287.0,285.0,5.77,6.45,,47.59359,-54.27349
2018-06-10 11:00:00+00:00,292.0,290.0,5.8,6.33,,47.59359,-54.27349
2018-06-10 11:10:00+00:00,294.0,288.0,5.57,6.41,,47.59359,-54.27349
2018-06-10 11:20:00+00:00,280.0,282.0,5.8,6.63,,47.59359,-54.27349
2018-06-10 11:30:00+00:00,285.0,286.0,4.97,5.34,,47.59359,-54.27349
2018-06-10 11:40:00+00:00,286.0,285.0,5.1,5.89,,47.59359,-54.27349
2018-06-10 11:50:00+00:00,289.0,287.0,5.25,5.78,,47.59359,-54.27349
2018-06-10 12:00:00+00:00,277.0,281.0,3.37,3.9,,47.59359,-54.27349
2018-06-10 12:10:00+00:00,281.0,285.0,4.99,5.67,,47.59359,-54.27349
2018-06-10 12:20:00+00:00,283.0,280.0,4.3,5.33,,47.59359,-54.27349
2018-06-10 12:30:00+00:00,282.0,285.0,5.81,6.77,,47.59359,-54.27349
2018-06-10 12:40:00+00:00,291.0,292.0,4.32,4.66,,47.59359,-54.27349
2018-06-10 12:50:00+00:00,274.0,275.0,3.76,4.13,,47.59359,-54.27349
2018-06-10 13:00:00+00:00,305.0,302.0,3.07,3.9,,47.59359,-54.27349
2018-06-10 13:10:00+00:00,273.0,275.0,4.69,5.08,,47.59359,-54.27349
2018-06-10 13:20:00+00:00,273.0,277.0,4.4,5.13,,47.59359,-54.27349
2018-06-10 13:30:00+00:00,274.0,268.0,4.43,5.09,,47.59359,-54.27349
2018-06-10 13:40:00+00:00,274.0,283.0,4.14,4.84,,47.59359,-54.27349
2018-06-10 13:50:00+00:00,265.0,272.0,3.98,4.83,,47.59359,-54.27349
2018-06-10 14:00:00+00:00,264.0,264.0,4.31,4.69,,47.59359,-54.27349
2018-06-10 14:10:00+00:00,268.0,268.0,4.93,5.23,,47.59359,-54.27349
2018-06-10 14:20:00+00:00,261.0,261.0,5.19,5.63,,47.59359,-54.27349
2018-06-10 14:30:00+00:00,267.0,267.0,7.51,8.07,,47.59359,-54.27349
2018-06-10 14:40:00+00:00,265.0,264.0,7.16,7.73,,47.59359,-54.27349
2018-06-10 14:50:00+00:00,272.0,272.0,5.47,6.19,,47.59359,-54.27349
2018-06-10 15:00:00+00:00,278.0,279.0,6.04,6.91,,47.59359,-54.27349
2018-06-10 15:10:00+00:00,284.0,283.0,6.14,6.54,,47.59359,-54.27349
2018-06-10 15:20:00+00:00,271.0,277.0,6.29,7.27,,47.59359,-54.27349
2018-06-10 15:30:00+00:00,270.0,266.0,5.0,5.52,,47.59359,-54.27349
2018-06-10 15:40:00+00:00,274.0,276.0,5.18,5.65,,47.59359,-54.27349
2018-06-10 15:50:00+00:00,270.0,275.0,6.84,7.67,,47.59359,-54.27349
2018-06-10 16:00:00+00:00,285.0,281.0,9.48,10.32,,47.59359,-54.27349
2018-06-10 16:10:00+00:00,281.0,279.0,9.03,10.25,,47.59359,-54.27349
2018-06-10 16:20:00+00:00,281.0,280.0,7.53,8.65,,47.59359,-54.27349
2018-06-10 16:30:00+00:00,285.0,289.0,9.24,10.74,,47.59359,-54.27349
2018-06-10 16:40:00+00:00,285.0,290.0,7.75,8.53,,47.59359,-54.27349
2018-06-10 16:50:00+00:00,281.0,283.0,8.88,10.5,,47.59359,-54.27349
2018-06-10 17:00:00+00:00,286.0,282.0,9.11,10.26,,47.59359,-54.27349
2018-06-10 17:10:00+00:00,276.0,270.0,7.09,8.62,,47.59359,-54.27349
2018-06-10 17:20:00+00:00,283.0,286.0,8.9,10.66,,47.59359,-54.27349
2018-06-10 17:30:00+00:00,274.0,275.0,10.1,11.34,,47.59359,-54.27349
2018-06-10 17:40:00+00:00,273.0,277.0,9.84,10.69,,47.59359,-54.27349
2018-06-10 17:50:00+00:00,275.0,278.0,8.62,9.2,,47.59359,-54.27349
2018-06-10 18:00:00+00:00,278.0,276.0,8.53,9.59,,47.59359,-54.27349
2018-06-10 18:10:00+00:00,293.0,294.0,8.51,9.92,,47.59359,-54.27349
2018-06-10 18:20:00+00:00,297.0,298.0,8.01,8.55,,47.59359,-54.27349
2018-06-10 18:30:00+00:00,270.0,274.0,4.77,5.75,,47.59359,-54.27349
2018-06-10 18:40:00+00:00,267.0,268.0,7.42,8.44,,47.59359,-54.27349
2018-06-10 18:50:00+00:00,253.0,250.0,8.33,10.1,,47.59359,-54.27349
2018-06-10 19:00:00+00:00,250.0,249.0,8.75,10.12,,47.59359,-54.27349
2018-06-10 19:10:00+00:00,246.0,250.0,9.53,10.77,,47.59359,-54.27349
2018-06-10 19:20:00+00:00,243.0,249.0,9.36,10.83,,47.59359,-54.27349
2018-06-10 19:30:00+00:00,243.0,251.0,7.99,9.38,,47.59359,-54.27349
2018-06-10 19:40:00+00:00,247.0,251.0,7.49,8.55,,47.59359,-54.27349
2018-06-10 19:50:00+00:00,249.0,249.0,7.68,8.44,,47.59359,-54.27349
2018-06-10 20:00:00+00:00,252.0,250.0,9.51,11.24,,47.59359,-54.27349
2018-06-10 20:10:00+00:00,246.0,242.0,8.8,9.93,,47.59359,-54.27349
2018-06-10 20:20:00+00:00,224.0,224.0,7.91,8.94,,47.59359,-54.27349
2018-06-10 20:30:00+00:00,228.0,227.0,7.28,7.94,,47.59359,-54.27349
2018-06-10 20:40:00+00:00,229.0,233.0,6.58,7.61,,47.59359,-54.27349
2018-06-10 20:50:00+00:00,241.0,244.0,8.04,9.73,,47.59359,-54.27349
2018-06-10 21:00:00+00:00,252.0,255.0,8.2,9.18,,47.59359,-54.27349
2018-06-10 21:10:00+00:00,255.0,256.0,8.87,9.98,,47.59359,-54.27349
2018-06-10 21:20:00+00:00,252.0,253.0,8.39,8.97,,47.59359,-54.27349
2018-06-10 21:30:00+00:00,256.0,256.0,7.85,8.43,,47.59359,-54.27349
2018-06-10 21:40:00+00:00,257.0,257.0,7.94,8.66,,47.59359,-54.27349
2018-06-10 21:50:00+00:00,270.0,269.0,7.19,8.15,,47.59359,-54.27349
2018-06-10 22:00:00+00:00,273.0,274.0,8.12,9.91,,47.59359,-54.27349
2018-06-10 22:10:00+00:00,271.0,278.0,8.24,9.32,,47.59359,-54.27349
2018-06-10 22:20:00+00:00,276.0,278.0,8.47,9.13,,47.59359,-54.27349
2018-06-10 22:30:00+00:00,279.0,281.0,8.21,8.76,,47.59359,-54.27349
2018-06-10 22:40:00+00:00,273.0,272.0,6.79,7.62,,47.59359,-54.27349
2018-06-10 22:50:00+00:00,279.0,281.0,8.11,8.64,,47.59359,-54.27349
2018-06-10 23:00:00+00:00,273.0,273.0,6.9,7.49,,47.59359,-54.27349
2018-06-10 23:10:00+00:00,265.0,268.0,6.69,7.26,,47.59359,-54.27349
2018-06-10 23:20:00+00:00,252.0,253.0,6.45,6.89,,47.59359,-54.27349
2018-06-10 23:30:00+00:00,243.0,242.0,5.91,6.76,,47.59359,-54.27349
2018-06-10 23:40:00+00:00,231.0,232.0,6.14,7.19,,47.59359,-54.27349
2018-06-10 23:50:00+00:00,240.0,241.0,6.94,8.22,,47.59359,-54.27349
